Tracking 35275 objects as of 8-Sep-2026
HD Live streaming from Space Station
objects crossing your sky now

STARLINK-34152

Track STARLINK-34152 now!
10-day predictions
STARLINK-34152 is classified as:


NORAD ID: 64000
Int'l Code: 2025-101G
Launch date: May 14, 2025
Source: United States (US)
Launch site: AIR FORCE EASTERN TEST RANGE (AFETR)
Your satellite tracking list
Your tracking list is empty




NASA's NSSDC Master Catalog

Two Line Element Set (TLE):
1 64000U 25101G   26251.49312856  .00014824  00000-0  54685-3 0  9993
2 64000  43.0033  45.4982 0001586 254.6474 105.4203 15.27595977 75014
Source of the keplerian elements: AFSPC